Regional Weather Roundup
Issued by NWS Newport/Morehead, NC

Current Version | Previous Version | Text Only | Print | Product List | Glossary On
Versions: 1 2 3 4 5 6 7 8 9 10 11 12 13 14 15 16 17 18 19 20 21 22 23 24 25 26 27 28 29 30 31 32 33 34 35 36 37 38 39 40 41 42 43 44 45 46 47 48 49 50
000
ASUS42 KMHX 261612
RWRMHX
WEATHER ROUNDUP FOR EASTERN NORTH CAROLINA
NATIONAL WEATHER SERVICE NEWPORT/MOREHEAD CITY NC
1200 PM EDT SUN APR 26 2015

NOTE: "FAIR" INDICATES FEW OR NO CLOUDS BELOW 12,000 FEET
WITH NO SIGNIFICANT WEATHER AND/OR OBSTRUCTIONS TO VISIBILITY

NCZ015>017-031-032-045>047-102-103-261700-
NORTH COAST

CITY           SKY/WX    TMP DP  RH WIND       PRES   REMARKS
EDENTON        CLOUDY    50  46  87 N8G16     29.69R
ELIZABETH CITY CLOUDY    50  46  86 N14       29.69R
KITTY HAWK     CLOUDY    50  49  99 N13G20    29.64S
MANTEO         CLOUDY    50  49  95 N15       29.66R

$$

NCZ045>047-081-094-103-104-261700-
CENTRAL COAST

CITY           SKY/WX    TMP DP  RH WIND       PRES   REMARKS
FRISCO         LGT RAIN  52  52 100 N10G21    29.62R
SWANQUARTER      N/A     52 N/A N/A VRB2G13   29.62S

$$

NCZ095-097-098-100-101-261700-
SOUTHERN COAST

CITY           SKY/WX    TMP DP  RH WIND       PRES   REMARKS
BEAUFORT       CLOUDY    54  52  93 N13       29.64S
CEDAR ISLAND     N/A     54 N/A N/A N16       29.68S
JACKSONVILLE   CLOUDY    54  51  90 N9        29.66R
PINEY ISLAND   CLOUDY   N/A N/A N/A N14       29.64S
WILMINGTON     CLOUDY    58  55  90 N8        29.65R


$$

NCZ011>013-027>030-043-044-078>080-089-090>093-098-261700-
COASTAL PLAIN

CITY           SKY/WX    TMP DP  RH WIND       PRES   REMARKS
AHOSKIE        CLOUDY    49  45  86 N9        29.72R
CLINTON        CLOUDY    53  51  92 N6        29.69S
ELIZABETHTOWN  CLOUDY    53  52  98 N6        29.68S
GOLDSBORO      CLOUDY    51  49  93 NE8       29.66R
GREENVILLE     CLOUDY    50  48  93 N8        29.72S
HAVELOCK       NOT AVBL
KENANSVILLE    CLOUDY    51  49  92 N6        29.69S
KINSTON        CLOUDY    52  52 100 N7        29.69R
NEW BERN       CLOUDY    53  48  83 N12       29.68S
RICHLANDS      CLOUDY    54  48  82 N7        29.67R
ROCKY MOUNT    CLOUDY    51  48  89 N9        29.71R
WASHINGTON     CLOUDY    50  47  91 N10       29.68S
WHITEVILLE     CLOUDY    55  52  88 N6        29.67R

$$

AMZ130-135-150-152-154-156-158-170-250-252-270-ANZ085-086-088-633-658-670-261700-
MARINE OBSERVATIONS

STATION/POSITION TIME  TEMP    WIND        PRES    WAVE   SWELL
                       AIR SEA DIR/SP/G            HT/PER HT/PER
                 (UTC) (F)     (DEG/KT/KT) (MB)    (FT/S) (FT/S)
CHESAPEAKE LIGHT 1600   47      10/ 18/ 20 1005.8
64 E VA BEACH    1550   53 59   10/ 19/ 23 1002.7    6/ 6
DUCK             1500   49 54   10/ 16/ 20 1002.7
2 E DUCK         1511      54                N/A     5/ 6
10 NE DUCK       NOT AVBL
OREGON INLET     1500   51 54  350/ 15/ 19 1003.1
HATTERAS CG      1500   55 65  360/ 20/ 22 1002.3
DIAMOND BUOY     1550   58 72  350/ 21/ 25 1001.8    5/ 8   2/15
CAPE LOOKOUT     1600   54     360/ 16/ 19 1003.2
BEAUFORT LAB     1500   55 63   10/ 12/ 15 1002.6
27 SE WRIGHTSVLE 1500   61 72   50/ 14/ 17   N/A
5 SE WRIGHTSVLE  1508   59 65   10/ 12/ 16 1003.3
225 S CAPE HAT   1550   72 71  250/ 16/ 17 1002.7    7/ 8   3/ 8
41 SE CHARLESTON 1550   71 72  260/ 17/ 21 1003.0    6/ 5   2/13

$$



USA.gov is the U.S. government's official web portal to all federal, state and local government web resources and services.